Index of /20260430/WXO-DD/model_gdps/15km/12/150
Name Last modified Size Description
Parent Directory -
20260430T12Z_MSC_GDPS_AbsoluteVorticity_IsbL-0200_LatLon0.15_PT150H.grib2 2026-04-30 16:31 1.2M
20260430T12Z_MSC_GDPS_AbsoluteVorticity_IsbL-0250_LatLon0.15_PT150H.grib2 2026-04-30 16:31 1.3M
20260430T12Z_MSC_GDPS_AbsoluteVorticity_IsbL-0500_LatLon0.15_PT150H.grib2 2026-04-30 16:31 1.5M
20260430T12Z_MSC_GDPS_AbsoluteVorticity_IsbL-0700_LatLon0.15_PT150H.grib2 2026-04-30 16:31 1.6M
20260430T12Z_MSC_GDPS_AbsoluteVorticity_IsbL-0850_LatLon0.15_PT150H.grib2 2026-04-30 16:31 1.6M
20260430T12Z_MSC_GDPS_AirTemp-Max_AGL-2m_LatLon0.15_PT150H.grib2 2026-04-30 16:31 743K
20260430T12Z_MSC_GDPS_AirTemp-Min_AGL-2m_LatLon0.15_PT150H.grib2 2026-04-30 16:31 793K
20260430T12Z_MSC_GDPS_AirTemp_AGL-120m_LatLon0.15_PT150H.grib2 2026-04-30 16:31 906K
20260430T12Z_MSC_GDPS_AirTemp_AGL-2m_LatLon0.15_PT150H.grib2 2026-04-30 16:31 1.0M
20260430T12Z_MSC_GDPS_AirTemp_AGL-40m_LatLon0.15_PT150H.grib2 2026-04-30 16:31 811K
20260430T12Z_MSC_GDPS_AirTemp_AGL-80m_LatLon0.15_PT150H.grib2 2026-04-30 16:31 916K
20260430T12Z_MSC_GDPS_AirTemp_IsbL-0001_LatLon0.15_PT150H.grib2 2026-04-30 16:31 657K
20260430T12Z_MSC_GDPS_AirTemp_IsbL-0005_LatLon0.15_PT150H.grib2 2026-04-30 16:31 692K
20260430T12Z_MSC_GDPS_AirTemp_IsbL-0010_LatLon0.15_PT150H.grib2 2026-04-30 16:31 700K
20260430T12Z_MSC_GDPS_AirTemp_IsbL-0020_LatLon0.15_PT150H.grib2 2026-04-30 16:31 791K
20260430T12Z_MSC_GDPS_AirTemp_IsbL-0030_LatLon0.15_PT150H.grib2 2026-04-30 16:31 758K
20260430T12Z_MSC_GDPS_AirTemp_IsbL-0050_LatLon0.15_PT150H.grib2 2026-04-30 16:31 807K
20260430T12Z_MSC_GDPS_AirTemp_IsbL-0100_LatLon0.15_PT150H.grib2 2026-04-30 16:31 965K
20260430T12Z_MSC_GDPS_AirTemp_IsbL-0150_LatLon0.15_PT150H.grib2 2026-04-30 16:31 968K
20260430T12Z_MSC_GDPS_AirTemp_IsbL-0175_LatLon0.15_PT150H.grib2 2026-04-30 16:31 962K
20260430T12Z_MSC_GDPS_AirTemp_IsbL-0200_LatLon0.15_PT150H.grib2 2026-04-30 16:31 1.0M
20260430T12Z_MSC_GDPS_AirTemp_IsbL-0225_LatLon0.15_PT150H.grib2 2026-04-30 16:31 1.0M
20260430T12Z_MSC_GDPS_AirTemp_IsbL-0250_LatLon0.15_PT150H.grib2 2026-04-30 16:31 1.0M
20260430T12Z_MSC_GDPS_AirTemp_IsbL-0275_LatLon0.15_PT150H.grib2 2026-04-30 16:31 1.0M
20260430T12Z_MSC_GDPS_AirTemp_IsbL-0300_LatLon0.15_PT150H.grib2 2026-04-30 16:31 947K
20260430T12Z_MSC_GDPS_AirTemp_IsbL-0350_LatLon0.15_PT150H.grib2 2026-04-30 16:31 929K
20260430T12Z_MSC_GDPS_AirTemp_IsbL-0400_LatLon0.15_PT150H.grib2 2026-04-30 16:31 947K
20260430T12Z_MSC_GDPS_AirTemp_IsbL-0450_LatLon0.15_PT150H.grib2 2026-04-30 16:31 1.0M
20260430T12Z_MSC_GDPS_AirTemp_IsbL-0500_LatLon0.15_PT150H.grib2 2026-04-30 16:31 1.0M
20260430T12Z_MSC_GDPS_AirTemp_IsbL-0550_LatLon0.15_PT150H.grib2 2026-04-30 16:31 1.0M
20260430T12Z_MSC_GDPS_AirTemp_IsbL-0600_LatLon0.15_PT150H.grib2 2026-04-30 16:31 900K
20260430T12Z_MSC_GDPS_AirTemp_IsbL-0650_LatLon0.15_PT150H.grib2 2026-04-30 16:31 927K
20260430T12Z_MSC_GDPS_AirTemp_IsbL-0700_LatLon0.15_PT150H.grib2 2026-04-30 16:31 963K
20260430T12Z_MSC_GDPS_AirTemp_IsbL-0750_LatLon0.15_PT150H.grib2 2026-04-30 16:31 1.0M
20260430T12Z_MSC_GDPS_AirTemp_IsbL-0800_LatLon0.15_PT150H.grib2 2026-04-30 16:31 1.1M
20260430T12Z_MSC_GDPS_AirTemp_IsbL-0850_LatLon0.15_PT150H.grib2 2026-04-30 16:31 1.1M
20260430T12Z_MSC_GDPS_AirTemp_IsbL-0875_LatLon0.15_PT150H.grib2 2026-04-30 16:31 1.2M
20260430T12Z_MSC_GDPS_AirTemp_IsbL-0900_LatLon0.15_PT150H.grib2 2026-04-30 16:31 1.2M
20260430T12Z_MSC_GDPS_AirTemp_IsbL-0925_LatLon0.15_PT150H.grib2 2026-04-30 16:31 1.1M
20260430T12Z_MSC_GDPS_AirTemp_IsbL-0950_LatLon0.15_PT150H.grib2 2026-04-30 16:31 1.1M
20260430T12Z_MSC_GDPS_AirTemp_IsbL-0970_LatLon0.15_PT150H.grib2 2026-04-30 16:31 1.2M
20260430T12Z_MSC_GDPS_AirTemp_IsbL-0985_LatLon0.15_PT150H.grib2 2026-04-30 16:31 1.1M
20260430T12Z_MSC_GDPS_AirTemp_IsbL-1000_LatLon0.15_PT150H.grib2 2026-04-30 16:31 1.1M
20260430T12Z_MSC_GDPS_AirTemp_IsbL-1015_LatLon0.15_PT150H.grib2 2026-04-30 16:31 1.1M
20260430T12Z_MSC_GDPS_Albedo_Sfc_LatLon0.15_PT150H.grib2 2026-04-30 16:31 247K
20260430T12Z_MSC_GDPS_CAPE_Sfc_LatLon0.15_PT150H.grib2 2026-04-30 16:31 3.7M
20260430T12Z_MSC_GDPS_CIN_Sfc_LatLon0.15_PT150H.grib2 2026-04-30 16:31 2.9M
20260430T12Z_MSC_GDPS_CloudWater_EAtm_LatLon0.15_PT150H.grib2 2026-04-30 16:31 541K
20260430T12Z_MSC_GDPS_ConvectivePrecip-Accum_Sfc_LatLon0.15_PT150H.grib2 2026-04-30 16:31 3.7M
20260430T12Z_MSC_GDPS_DewPointDepression_AGL-2m_LatLon0.15_PT150H.grib2 2026-04-30 16:31 767K
20260430T12Z_MSC_GDPS_DewPointDepression_IsbL-0010_LatLon0.15_PT150H.grib2 2026-04-30 16:31 73K
20260430T12Z_MSC_GDPS_DewPointDepression_IsbL-0020_LatLon0.15_PT150H.grib2 2026-04-30 16:31 69K
20260430T12Z_MSC_GDPS_DewPointDepression_IsbL-0030_LatLon0.15_PT150H.grib2 2026-04-30 16:31 88K
20260430T12Z_MSC_GDPS_DewPointDepression_IsbL-0050_LatLon0.15_PT150H.grib2 2026-04-30 16:31 379K
20260430T12Z_MSC_GDPS_DewPointDepression_IsbL-0100_LatLon0.15_PT150H.grib2 2026-04-30 16:31 400K
20260430T12Z_MSC_GDPS_DewPointDepression_IsbL-0150_LatLon0.15_PT150H.grib2 2026-04-30 16:31 483K
20260430T12Z_MSC_GDPS_DewPointDepression_IsbL-0175_LatLon0.15_PT150H.grib2 2026-04-30 16:31 592K
20260430T12Z_MSC_GDPS_DewPointDepression_IsbL-0200_LatLon0.15_PT150H.grib2 2026-04-30 16:31 697K
20260430T12Z_MSC_GDPS_DewPointDepression_IsbL-0225_LatLon0.15_PT150H.grib2 2026-04-30 16:31 769K
20260430T12Z_MSC_GDPS_DewPointDepression_IsbL-0250_LatLon0.15_PT150H.grib2 2026-04-30 16:31 864K
20260430T12Z_MSC_GDPS_DewPointDepression_IsbL-0275_LatLon0.15_PT150H.grib2 2026-04-30 16:31 887K
20260430T12Z_MSC_GDPS_DewPointDepression_IsbL-0300_LatLon0.15_PT150H.grib2 2026-04-30 16:31 931K
20260430T12Z_MSC_GDPS_DewPointDepression_IsbL-0350_LatLon0.15_PT150H.grib2 2026-04-30 16:31 967K
20260430T12Z_MSC_GDPS_DewPointDepression_IsbL-0400_LatLon0.15_PT150H.grib2 2026-04-30 16:31 1.0M
20260430T12Z_MSC_GDPS_DewPointDepression_IsbL-0450_LatLon0.15_PT150H.grib2 2026-04-30 16:31 1.0M
20260430T12Z_MSC_GDPS_DewPointDepression_IsbL-0500_LatLon0.15_PT150H.grib2 2026-04-30 16:31 1.0M
20260430T12Z_MSC_GDPS_DewPointDepression_IsbL-0550_LatLon0.15_PT150H.grib2 2026-04-30 16:31 1.0M
20260430T12Z_MSC_GDPS_DewPointDepression_IsbL-0600_LatLon0.15_PT150H.grib2 2026-04-30 16:31 1.0M
20260430T12Z_MSC_GDPS_DewPointDepression_IsbL-0650_LatLon0.15_PT150H.grib2 2026-04-30 16:31 1.1M
20260430T12Z_MSC_GDPS_DewPointDepression_IsbL-0700_LatLon0.15_PT150H.grib2 2026-04-30 16:31 1.1M
20260430T12Z_MSC_GDPS_DewPointDepression_IsbL-0750_LatLon0.15_PT150H.grib2 2026-04-30 16:31 1.1M
20260430T12Z_MSC_GDPS_DewPointDepression_IsbL-0800_LatLon0.15_PT150H.grib2 2026-04-30 16:31 1.2M
20260430T12Z_MSC_GDPS_DewPointDepression_IsbL-0850_LatLon0.15_PT150H.grib2 2026-04-30 16:31 1.2M
20260430T12Z_MSC_GDPS_DewPointDepression_IsbL-0875_LatLon0.15_PT150H.grib2 2026-04-30 16:31 1.1M
20260430T12Z_MSC_GDPS_DewPointDepression_IsbL-0900_LatLon0.15_PT150H.grib2 2026-04-30 16:31 1.1M
20260430T12Z_MSC_GDPS_DewPointDepression_IsbL-0925_LatLon0.15_PT150H.grib2 2026-04-30 16:31 1.0M
20260430T12Z_MSC_GDPS_DewPointDepression_IsbL-0950_LatLon0.15_PT150H.grib2 2026-04-30 16:31 1.0M
20260430T12Z_MSC_GDPS_DewPointDepression_IsbL-0970_LatLon0.15_PT150H.grib2 2026-04-30 16:31 1.0M
20260430T12Z_MSC_GDPS_DewPointDepression_IsbL-0985_LatLon0.15_PT150H.grib2 2026-04-30 16:31 1.0M
20260430T12Z_MSC_GDPS_DewPointDepression_IsbL-1000_LatLon0.15_PT150H.grib2 2026-04-30 16:31 1.0M
20260430T12Z_MSC_GDPS_DewPointDepression_IsbL-1015_LatLon0.15_PT150H.grib2 2026-04-30 16:31 923K
20260430T12Z_MSC_GDPS_DewPoint_AGL-2m_LatLon0.15_PT150H.grib2 2026-04-30 16:31 613K
20260430T12Z_MSC_GDPS_DownwardLongwaveRadiationFlux-Accum_Sfc_LatLon0.15_PT150H.grib2 2026-04-30 16:31 617K
20260430T12Z_MSC_GDPS_DownwardShortwaveRadiationFlux-Accum_NTAtm_LatLon0.15_PT150H.grib2 2026-04-30 16:31 190K
20260430T12Z_MSC_GDPS_DownwardShortwaveRadiationFlux-Accum_Sfc_LatLon0.15_PT150H.grib2 2026-04-30 16:31 1.0M
20260430T12Z_MSC_GDPS_FreezingRain-Accum12h_Sfc_LatLon0.15_PT150H.grib2 2026-04-30 16:31 113K
20260430T12Z_MSC_GDPS_FreezingRain-Accum24h_Sfc_LatLon0.15_PT150H.grib2 2026-04-30 16:31 160K
20260430T12Z_MSC_GDPS_FreezingRain-Accum3h_Sfc_LatLon0.15_PT150H.grib2 2026-04-30 16:31 51K
20260430T12Z_MSC_GDPS_FreezingRain-Accum6h_Sfc_LatLon0.15_PT150H.grib2 2026-04-30 16:31 82K
20260430T12Z_MSC_GDPS_FreezingRain-Accum_Sfc_LatLon0.15_PT150H.grib2 2026-04-30 16:31 463K
20260430T12Z_MSC_GDPS_GeopotentialHeight_IsbL-0001_LatLon0.15_PT150H.grib2 2026-04-30 16:31 423K
20260430T12Z_MSC_GDPS_GeopotentialHeight_IsbL-0005_LatLon0.15_PT150H.grib2 2026-04-30 16:31 483K
20260430T12Z_MSC_GDPS_GeopotentialHeight_IsbL-0010_LatLon0.15_PT150H.grib2 2026-04-30 16:31 479K
20260430T12Z_MSC_GDPS_GeopotentialHeight_IsbL-0020_LatLon0.15_PT150H.grib2 2026-04-30 16:31 420K
20260430T12Z_MSC_GDPS_GeopotentialHeight_IsbL-0030_LatLon0.15_PT150H.grib2 2026-04-30 16:31 424K
20260430T12Z_MSC_GDPS_GeopotentialHeight_IsbL-0050_LatLon0.15_PT150H.grib2 2026-04-30 16:31 570K
20260430T12Z_MSC_GDPS_GeopotentialHeight_IsbL-0100_LatLon0.15_PT150H.grib2 2026-04-30 16:31 612K
20260430T12Z_MSC_GDPS_GeopotentialHeight_IsbL-0150_LatLon0.15_PT150H.grib2 2026-04-30 16:31 633K
20260430T12Z_MSC_GDPS_GeopotentialHeight_IsbL-0175_LatLon0.15_PT150H.grib2 2026-04-30 16:31 636K
20260430T12Z_MSC_GDPS_GeopotentialHeight_IsbL-0200_LatLon0.15_PT150H.grib2 2026-04-30 16:31 643K
20260430T12Z_MSC_GDPS_GeopotentialHeight_IsbL-0225_LatLon0.15_PT150H.grib2 2026-04-30 16:31 640K
20260430T12Z_MSC_GDPS_GeopotentialHeight_IsbL-0250_LatLon0.15_PT150H.grib2 2026-04-30 16:31 647K
20260430T12Z_MSC_GDPS_GeopotentialHeight_IsbL-0275_LatLon0.15_PT150H.grib2 2026-04-30 16:31 645K
20260430T12Z_MSC_GDPS_GeopotentialHeight_IsbL-0300_LatLon0.15_PT150H.grib2 2026-04-30 16:31 645K
20260430T12Z_MSC_GDPS_GeopotentialHeight_IsbL-0350_LatLon0.15_PT150H.grib2 2026-04-30 16:31 635K
20260430T12Z_MSC_GDPS_GeopotentialHeight_IsbL-0400_LatLon0.15_PT150H.grib2 2026-04-30 16:31 625K
20260430T12Z_MSC_GDPS_GeopotentialHeight_IsbL-0450_LatLon0.15_PT150H.grib2 2026-04-30 16:31 613K
20260430T12Z_MSC_GDPS_GeopotentialHeight_IsbL-0500_LatLon0.15_PT150H.grib2 2026-04-30 16:31 534K
20260430T12Z_MSC_GDPS_GeopotentialHeight_IsbL-0550_LatLon0.15_PT150H.grib2 2026-04-30 16:31 527K
20260430T12Z_MSC_GDPS_GeopotentialHeight_IsbL-0600_LatLon0.15_PT150H.grib2 2026-04-30 16:31 690K
20260430T12Z_MSC_GDPS_GeopotentialHeight_IsbL-0650_LatLon0.15_PT150H.grib2 2026-04-30 16:31 692K
20260430T12Z_MSC_GDPS_GeopotentialHeight_IsbL-0700_LatLon0.15_PT150H.grib2 2026-04-30 16:31 694K
20260430T12Z_MSC_GDPS_GeopotentialHeight_IsbL-0750_LatLon0.15_PT150H.grib2 2026-04-30 16:31 694K
20260430T12Z_MSC_GDPS_GeopotentialHeight_IsbL-0800_LatLon0.15_PT150H.grib2 2026-04-30 16:31 707K
20260430T12Z_MSC_GDPS_GeopotentialHeight_IsbL-0850_LatLon0.15_PT150H.grib2 2026-04-30 16:31 714K
20260430T12Z_MSC_GDPS_GeopotentialHeight_IsbL-0875_LatLon0.15_PT150H.grib2 2026-04-30 16:31 719K
20260430T12Z_MSC_GDPS_GeopotentialHeight_IsbL-0900_LatLon0.15_PT150H.grib2 2026-04-30 16:31 724K
20260430T12Z_MSC_GDPS_GeopotentialHeight_IsbL-0925_LatLon0.15_PT150H.grib2 2026-04-30 16:31 734K
20260430T12Z_MSC_GDPS_GeopotentialHeight_IsbL-0950_LatLon0.15_PT150H.grib2 2026-04-30 16:31 739K
20260430T12Z_MSC_GDPS_GeopotentialHeight_IsbL-0970_LatLon0.15_PT150H.grib2 2026-04-30 16:31 751K
20260430T12Z_MSC_GDPS_GeopotentialHeight_IsbL-0985_LatLon0.15_PT150H.grib2 2026-04-30 16:31 764K
20260430T12Z_MSC_GDPS_GeopotentialHeight_IsbL-1000_LatLon0.15_PT150H.grib2 2026-04-30 16:31 787K
20260430T12Z_MSC_GDPS_GeopotentialHeight_IsbL-1015_LatLon0.15_PT150H.grib2 2026-04-30 16:31 811K
20260430T12Z_MSC_GDPS_Humidex_Sfc_LatLon0.15_PT150H.grib2 2026-04-30 16:31 5.3M
20260430T12Z_MSC_GDPS_IcePellets-Accum12h_Sfc_LatLon0.15_PT150H.grib2 2026-04-30 16:31 27K
20260430T12Z_MSC_GDPS_IcePellets-Accum24h_Sfc_LatLon0.15_PT150H.grib2 2026-04-30 16:31 56K
20260430T12Z_MSC_GDPS_IcePellets-Accum3h_Sfc_LatLon0.15_PT150H.grib2 2026-04-30 16:31 12K
20260430T12Z_MSC_GDPS_IcePellets-Accum6h_Sfc_LatLon0.15_PT150H.grib2 2026-04-30 16:31 18K
20260430T12Z_MSC_GDPS_IcePellets-Accum_Sfc_LatLon0.15_PT150H.grib2 2026-04-30 16:31 151K
20260430T12Z_MSC_GDPS_KIndex_Sfc_LatLon0.15_PT150H.grib2 2026-04-30 16:31 6.5M
20260430T12Z_MSC_GDPS_LatentHeatNetFlux_Sfc_LatLon0.15_PT150H.grib2 2026-04-30 16:31 699K
20260430T12Z_MSC_GDPS_LiftedIndex-MU-VT_IsbL-0500_LatLon0.15_PT150H.grib2 2026-04-30 16:31 5.4M
20260430T12Z_MSC_GDPS_NetLongwaveRadiationFlux-Accum_Sfc_LatLon0.15_PT150H.grib2 2026-04-30 16:31 1.1M
20260430T12Z_MSC_GDPS_NetShortwaveRadiationFlux-Accum_Sfc_LatLon0.15_PT150H.grib2 2026-04-30 16:31 1.0M
20260430T12Z_MSC_GDPS_O3MixingRatio_Sfc_LatLon0.15_PT150H.grib2 2026-04-30 16:45 2.2M
20260430T12Z_MSC_GDPS_O3_EAtm_LatLon0.15_PT150H.grib2 2026-04-30 16:45 2.4M
20260430T12Z_MSC_GDPS_PlanetaryBoundaryLayerHeight_Sfc_LatLon0.15_PT150H.grib2 2026-04-30 16:31 2.4M
20260430T12Z_MSC_GDPS_Precip-Accum12h_Sfc_LatLon0.15_PT150H.grib2 2026-04-30 16:31 4.4M
20260430T12Z_MSC_GDPS_Precip-Accum24h_Sfc_LatLon0.15_PT150H.grib2 2026-04-30 16:31 4.6M
20260430T12Z_MSC_GDPS_Precip-Accum3h_Sfc_LatLon0.15_PT150H.grib2 2026-04-30 16:31 3.5M
20260430T12Z_MSC_GDPS_Precip-Accum6h_Sfc_LatLon0.15_PT150H.grib2 2026-04-30 16:31 4.0M
20260430T12Z_MSC_GDPS_Precip-Accum_Sfc_LatLon0.15_PT150H.grib2 2026-04-30 16:31 5.3M
20260430T12Z_MSC_GDPS_PrecipRate_Sfc_LatLon0.15_PT150H.grib2 2026-04-30 16:31 3.0M
20260430T12Z_MSC_GDPS_PrecipType-Instant_Sfc_LatLon0.15_PT150H.grib2 2026-04-30 16:31 1.6M
20260430T12Z_MSC_GDPS_Pressure_MSL_LatLon0.15_PT150H.grib2 2026-04-30 16:31 726K
20260430T12Z_MSC_GDPS_Pressure_PVU-1.5_LatLon0.15_PT150H.grib2 2026-04-30 16:31 5.8M
20260430T12Z_MSC_GDPS_Pressure_PVU-1_LatLon0.15_PT150H.grib2 2026-04-30 16:31 6.0M
20260430T12Z_MSC_GDPS_Pressure_PVU-2_LatLon0.15_PT150H.grib2 2026-04-30 16:31 5.6M
20260430T12Z_MSC_GDPS_Pressure_Sfc_LatLon0.15_PT150H.grib2 2026-04-30 16:31 1.1M
20260430T12Z_MSC_GDPS_RadiativeTemp_Sfc_LatLon0.15_PT150H.grib2 2026-04-30 16:31 666K
20260430T12Z_MSC_GDPS_Rain-Accum12h_Sfc_LatLon0.15_PT150H.grib2 2026-04-30 16:31 3.0M
20260430T12Z_MSC_GDPS_Rain-Accum24h_Sfc_LatLon0.15_PT150H.grib2 2026-04-30 16:31 3.2M
20260430T12Z_MSC_GDPS_Rain-Accum3h_Sfc_LatLon0.15_PT150H.grib2 2026-04-30 16:31 1.7M
20260430T12Z_MSC_GDPS_Rain-Accum6h_Sfc_LatLon0.15_PT150H.grib2 2026-04-30 16:31 2.5M
20260430T12Z_MSC_GDPS_Rain-Accum_Sfc_LatLon0.15_PT150H.grib2 2026-04-30 16:31 4.1M
20260430T12Z_MSC_GDPS_RelativeHumidity_AGL-2m_LatLon0.15_PT150H.grib2 2026-04-30 16:31 1.0M
20260430T12Z_MSC_GDPS_RelativeHumidity_IsbL-0010_LatLon0.15_PT150H.grib2 2026-04-30 16:31 199K
20260430T12Z_MSC_GDPS_RelativeHumidity_IsbL-0020_LatLon0.15_PT150H.grib2 2026-04-30 16:31 159K
20260430T12Z_MSC_GDPS_RelativeHumidity_IsbL-0030_LatLon0.15_PT150H.grib2 2026-04-30 16:31 263K
20260430T12Z_MSC_GDPS_RelativeHumidity_IsbL-0050_LatLon0.15_PT150H.grib2 2026-04-30 16:31 333K
20260430T12Z_MSC_GDPS_RelativeHumidity_IsbL-0100_LatLon0.15_PT150H.grib2 2026-04-30 16:31 503K
20260430T12Z_MSC_GDPS_RelativeHumidity_IsbL-0150_LatLon0.15_PT150H.grib2 2026-04-30 16:31 667K
20260430T12Z_MSC_GDPS_RelativeHumidity_IsbL-0175_LatLon0.15_PT150H.grib2 2026-04-30 16:31 799K
20260430T12Z_MSC_GDPS_RelativeHumidity_IsbL-0200_LatLon0.15_PT150H.grib2 2026-04-30 16:31 718K
20260430T12Z_MSC_GDPS_RelativeHumidity_IsbL-0225_LatLon0.15_PT150H.grib2 2026-04-30 16:31 793K
20260430T12Z_MSC_GDPS_RelativeHumidity_IsbL-0250_LatLon0.15_PT150H.grib2 2026-04-30 16:31 867K
20260430T12Z_MSC_GDPS_RelativeHumidity_IsbL-0275_LatLon0.15_PT150H.grib2 2026-04-30 16:31 892K
20260430T12Z_MSC_GDPS_RelativeHumidity_IsbL-0300_LatLon0.15_PT150H.grib2 2026-04-30 16:31 934K
20260430T12Z_MSC_GDPS_RelativeHumidity_IsbL-0350_LatLon0.15_PT150H.grib2 2026-04-30 16:31 954K
20260430T12Z_MSC_GDPS_RelativeHumidity_IsbL-0400_LatLon0.15_PT150H.grib2 2026-04-30 16:31 1.0M
20260430T12Z_MSC_GDPS_RelativeHumidity_IsbL-0450_LatLon0.15_PT150H.grib2 2026-04-30 16:31 1.0M
20260430T12Z_MSC_GDPS_RelativeHumidity_IsbL-0500_LatLon0.15_PT150H.grib2 2026-04-30 16:31 1.0M
20260430T12Z_MSC_GDPS_RelativeHumidity_IsbL-0550_LatLon0.15_PT150H.grib2 2026-04-30 16:31 1.0M
20260430T12Z_MSC_GDPS_RelativeHumidity_IsbL-0600_LatLon0.15_PT150H.grib2 2026-04-30 16:31 1.1M
20260430T12Z_MSC_GDPS_RelativeHumidity_IsbL-0650_LatLon0.15_PT150H.grib2 2026-04-30 16:31 1.1M
20260430T12Z_MSC_GDPS_RelativeHumidity_IsbL-0700_LatLon0.15_PT150H.grib2 2026-04-30 16:31 1.1M
20260430T12Z_MSC_GDPS_RelativeHumidity_IsbL-0750_LatLon0.15_PT150H.grib2 2026-04-30 16:31 1.1M
20260430T12Z_MSC_GDPS_RelativeHumidity_IsbL-0800_LatLon0.15_PT150H.grib2 2026-04-30 16:31 1.2M
20260430T12Z_MSC_GDPS_RelativeHumidity_IsbL-0850_LatLon0.15_PT150H.grib2 2026-04-30 16:31 1.3M
20260430T12Z_MSC_GDPS_RelativeHumidity_IsbL-0875_LatLon0.15_PT150H.grib2 2026-04-30 16:31 1.3M
20260430T12Z_MSC_GDPS_RelativeHumidity_IsbL-0900_LatLon0.15_PT150H.grib2 2026-04-30 16:31 1.2M
20260430T12Z_MSC_GDPS_RelativeHumidity_IsbL-0925_LatLon0.15_PT150H.grib2 2026-04-30 16:31 1.2M
20260430T12Z_MSC_GDPS_RelativeHumidity_IsbL-0950_LatLon0.15_PT150H.grib2 2026-04-30 16:31 1.2M
20260430T12Z_MSC_GDPS_RelativeHumidity_IsbL-0970_LatLon0.15_PT150H.grib2 2026-04-30 16:31 1.2M
20260430T12Z_MSC_GDPS_RelativeHumidity_IsbL-0985_LatLon0.15_PT150H.grib2 2026-04-30 16:31 1.2M
20260430T12Z_MSC_GDPS_RelativeHumidity_IsbL-1000_LatLon0.15_PT150H.grib2 2026-04-30 16:31 1.1M
20260430T12Z_MSC_GDPS_RelativeHumidity_IsbL-1015_LatLon0.15_PT150H.grib2 2026-04-30 16:31 1.1M
20260430T12Z_MSC_GDPS_RelativeVorticity_IsbL-0200_LatLon0.15_PT150H.grib2 2026-04-30 16:31 1.2M
20260430T12Z_MSC_GDPS_RelativeVorticity_IsbL-0250_LatLon0.15_PT150H.grib2 2026-04-30 16:31 1.3M
20260430T12Z_MSC_GDPS_RelativeVorticity_IsbL-0500_LatLon0.15_PT150H.grib2 2026-04-30 16:31 1.5M
20260430T12Z_MSC_GDPS_RelativeVorticity_IsbL-0700_LatLon0.15_PT150H.grib2 2026-04-30 16:31 1.6M
20260430T12Z_MSC_GDPS_RelativeVorticity_IsbL-0850_LatLon0.15_PT150H.grib2 2026-04-30 16:31 1.6M
20260430T12Z_MSC_GDPS_Runoff-Accum_Sfc_LatLon0.15_PT150H.grib2 2026-04-30 16:31 158K
20260430T12Z_MSC_GDPS_SensibleHeatNetFlux_Sfc_LatLon0.15_PT150H.grib2 2026-04-30 16:31 474K
20260430T12Z_MSC_GDPS_ShowalterIndex_IsbL-0500_LatLon0.15_PT150H.grib2 2026-04-30 16:31 6.2M
20260430T12Z_MSC_GDPS_Snow-Accum12h_Sfc_LatLon0.15_PT150H.grib2 2026-04-30 16:31 1.4M
20260430T12Z_MSC_GDPS_Snow-Accum24h_Sfc_LatLon0.15_PT150H.grib2 2026-04-30 16:31 1.6M
20260430T12Z_MSC_GDPS_Snow-Accum3h_Sfc_LatLon0.15_PT150H.grib2 2026-04-30 16:31 1.2M
20260430T12Z_MSC_GDPS_Snow-Accum6h_Sfc_LatLon0.15_PT150H.grib2 2026-04-30 16:31 1.5M
20260430T12Z_MSC_GDPS_Snow-Accum_Sfc_LatLon0.15_PT150H.grib2 2026-04-30 16:31 2.0M
20260430T12Z_MSC_GDPS_SnowDensity_Sfc_LatLon0.15_PT150H.grib2 2026-04-30 16:31 262K
20260430T12Z_MSC_GDPS_SnowDepth_Sfc_LatLon0.15_PT150H.grib2 2026-04-30 16:31 1.7M
20260430T12Z_MSC_GDPS_SoilTemp_DBS-0to10cm_LatLon0.15_PT150H.grib2 2026-04-30 16:31 515K
20260430T12Z_MSC_GDPS_SoilTemp_Sfc_LatLon0.15_PT150H.grib2 2026-04-30 16:31 583K
20260430T12Z_MSC_GDPS_SoilVolumetricIceContent_Sfc_LatLon0.15_PT150H.grib2 2026-04-30 16:31 188K
20260430T12Z_MSC_GDPS_SoilVolumetricWaterContent_DBS-0to10cm_LatLon0.15_PT150H.grib2 2026-04-30 16:31 593K
20260430T12Z_MSC_GDPS_SoilVolumetricWaterContent_DBS-0to1cm_LatLon0.15_PT150H.grib2 2026-04-30 16:31 648K
20260430T12Z_MSC_GDPS_SpecificHumidity_AGL-120m_LatLon0.15_PT150H.grib2 2026-04-30 16:31 1.1M
20260430T12Z_MSC_GDPS_SpecificHumidity_AGL-2m_LatLon0.15_PT150H.grib2 2026-04-30 16:31 1.2M
20260430T12Z_MSC_GDPS_SpecificHumidity_AGL-40m_LatLon0.15_PT150H.grib2 2026-04-30 16:31 1.1M
20260430T12Z_MSC_GDPS_SpecificHumidity_AGL-80m_LatLon0.15_PT150H.grib2 2026-04-30 16:31 1.1M
20260430T12Z_MSC_GDPS_SpecificHumidity_IsbL-0001_LatLon0.15_PT150H.grib2 2026-04-30 16:31 1.2M
20260430T12Z_MSC_GDPS_SpecificHumidity_IsbL-0005_LatLon0.15_PT150H.grib2 2026-04-30 16:31 1.1M
20260430T12Z_MSC_GDPS_SpecificHumidity_IsbL-0010_LatLon0.15_PT150H.grib2 2026-04-30 16:31 1.2M
20260430T12Z_MSC_GDPS_SpecificHumidity_IsbL-0020_LatLon0.15_PT150H.grib2 2026-04-30 16:31 1.2M
20260430T12Z_MSC_GDPS_SpecificHumidity_IsbL-0030_LatLon0.15_PT150H.grib2 2026-04-30 16:31 1.5M
20260430T12Z_MSC_GDPS_SpecificHumidity_IsbL-0050_LatLon0.15_PT150H.grib2 2026-04-30 16:31 1.6M
20260430T12Z_MSC_GDPS_SpecificHumidity_IsbL-0100_LatLon0.15_PT150H.grib2 2026-04-30 16:31 1.3M
20260430T12Z_MSC_GDPS_SpecificHumidity_IsbL-0150_LatLon0.15_PT150H.grib2 2026-04-30 16:31 1.3M
20260430T12Z_MSC_GDPS_SpecificHumidity_IsbL-0175_LatLon0.15_PT150H.grib2 2026-04-30 16:31 1.2M
20260430T12Z_MSC_GDPS_SpecificHumidity_IsbL-0200_LatLon0.15_PT150H.grib2 2026-04-30 16:31 1.3M
20260430T12Z_MSC_GDPS_SpecificHumidity_IsbL-0225_LatLon0.15_PT150H.grib2 2026-04-30 16:31 1.3M
20260430T12Z_MSC_GDPS_SpecificHumidity_IsbL-0250_LatLon0.15_PT150H.grib2 2026-04-30 16:31 1.4M
20260430T12Z_MSC_GDPS_SpecificHumidity_IsbL-0275_LatLon0.15_PT150H.grib2 2026-04-30 16:31 1.3M
20260430T12Z_MSC_GDPS_SpecificHumidity_IsbL-0300_LatLon0.15_PT150H.grib2 2026-04-30 16:31 1.2M
20260430T12Z_MSC_GDPS_SpecificHumidity_IsbL-0350_LatLon0.15_PT150H.grib2 2026-04-30 16:31 1.2M
20260430T12Z_MSC_GDPS_SpecificHumidity_IsbL-0400_LatLon0.15_PT150H.grib2 2026-04-30 16:31 1.5M
20260430T12Z_MSC_GDPS_SpecificHumidity_IsbL-0450_LatLon0.15_PT150H.grib2 2026-04-30 16:31 1.6M
20260430T12Z_MSC_GDPS_SpecificHumidity_IsbL-0500_LatLon0.15_PT150H.grib2 2026-04-30 16:31 1.4M
20260430T12Z_MSC_GDPS_SpecificHumidity_IsbL-0550_LatLon0.15_PT150H.grib2 2026-04-30 16:31 1.6M
20260430T12Z_MSC_GDPS_SpecificHumidity_IsbL-0600_LatLon0.15_PT150H.grib2 2026-04-30 16:31 1.7M
20260430T12Z_MSC_GDPS_SpecificHumidity_IsbL-0650_LatLon0.15_PT150H.grib2 2026-04-30 16:31 1.5M
20260430T12Z_MSC_GDPS_SpecificHumidity_IsbL-0700_LatLon0.15_PT150H.grib2 2026-04-30 16:31 1.6M
20260430T12Z_MSC_GDPS_SpecificHumidity_IsbL-0750_LatLon0.15_PT150H.grib2 2026-04-30 16:31 1.7M
20260430T12Z_MSC_GDPS_SpecificHumidity_IsbL-0800_LatLon0.15_PT150H.grib2 2026-04-30 16:31 1.8M
20260430T12Z_MSC_GDPS_SpecificHumidity_IsbL-0850_LatLon0.15_PT150H.grib2 2026-04-30 16:31 1.9M
20260430T12Z_MSC_GDPS_SpecificHumidity_IsbL-0875_LatLon0.15_PT150H.grib2 2026-04-30 16:31 2.0M
20260430T12Z_MSC_GDPS_SpecificHumidity_IsbL-0900_LatLon0.15_PT150H.grib2 2026-04-30 16:31 1.9M
20260430T12Z_MSC_GDPS_SpecificHumidity_IsbL-0925_LatLon0.15_PT150H.grib2 2026-04-30 16:31 1.9M
20260430T12Z_MSC_GDPS_SpecificHumidity_IsbL-0950_LatLon0.15_PT150H.grib2 2026-04-30 16:31 1.6M
20260430T12Z_MSC_GDPS_SpecificHumidity_IsbL-0970_LatLon0.15_PT150H.grib2 2026-04-30 16:31 1.5M
20260430T12Z_MSC_GDPS_SpecificHumidity_IsbL-0985_LatLon0.15_PT150H.grib2 2026-04-30 16:31 1.5M
20260430T12Z_MSC_GDPS_SpecificHumidity_IsbL-1000_LatLon0.15_PT150H.grib2 2026-04-30 16:31 1.5M
20260430T12Z_MSC_GDPS_SpecificHumidity_IsbL-1015_LatLon0.15_PT150H.grib2 2026-04-30 16:31 1.5M
20260430T12Z_MSC_GDPS_SpecificHumidity_Sfc_LatLon0.15_PT150H.grib2 2026-04-30 16:31 677K
20260430T12Z_MSC_GDPS_Thickness_IsbL-0850to0700_LatLon0.15_PT150H.grib2 2026-04-30 16:31 473K
20260430T12Z_MSC_GDPS_Thickness_IsbL-1000to0500_LatLon0.15_PT150H.grib2 2026-04-30 16:31 374K
20260430T12Z_MSC_GDPS_Thickness_IsbL-1000to0850_LatLon0.15_PT150H.grib2 2026-04-30 16:31 491K
20260430T12Z_MSC_GDPS_TotalCloudCover_Sfc_LatLon0.15_PT150H.grib2 2026-04-30 16:31 825K
20260430T12Z_MSC_GDPS_TotalTotalsIndex_Sfc_LatLon0.15_PT150H.grib2 2026-04-30 16:31 6.2M
20260430T12Z_MSC_GDPS_UVIndex-ClearSky-Max24h_Sfc_LatLon0.15_PT150H.grib2 2026-04-30 16:45 2.2M
20260430T12Z_MSC_GDPS_UVIndex-ClearSky_Sfc_LatLon0.15_PT150H.grib2 2026-04-30 16:45 1.0M
20260430T12Z_MSC_GDPS_UVIndex-Max24h_Sfc_LatLon0.15_PT150H.grib2 2026-04-30 16:45 3.2M
20260430T12Z_MSC_GDPS_UVIndex_Sfc_LatLon0.15_PT150H.grib2 2026-04-30 16:45 1.5M
20260430T12Z_MSC_GDPS_UpwardLongwaveRadiationFlux_NTAtm_LatLon0.15_PT150H.grib2 2026-04-30 16:31 840K
20260430T12Z_MSC_GDPS_VerticalVelocity_IsbL-0200_LatLon0.15_PT150H.grib2 2026-04-30 16:31 951K
20260430T12Z_MSC_GDPS_VerticalVelocity_IsbL-0250_LatLon0.15_PT150H.grib2 2026-04-30 16:31 1.1M
20260430T12Z_MSC_GDPS_VerticalVelocity_IsbL-0500_LatLon0.15_PT150H.grib2 2026-04-30 16:31 1.0M
20260430T12Z_MSC_GDPS_VerticalVelocity_IsbL-0600_LatLon0.15_PT150H.grib2 2026-04-30 16:31 1.4M
20260430T12Z_MSC_GDPS_VerticalVelocity_IsbL-0700_LatLon0.15_PT150H.grib2 2026-04-30 16:31 1.1M
20260430T12Z_MSC_GDPS_VerticalVelocity_IsbL-0850_LatLon0.15_PT150H.grib2 2026-04-30 16:31 1.6M
20260430T12Z_MSC_GDPS_WindChill_Sfc_LatLon0.15_PT150H.grib2 2026-04-30 16:31 5.3M
20260430T12Z_MSC_GDPS_WindDir_AGL-10m_LatLon0.15_PT150H.grib2 2026-04-30 16:31 1.3M
20260430T12Z_MSC_GDPS_WindDir_AGL-120m_LatLon0.15_PT150H.grib2 2026-04-30 16:31 1.3M
20260430T12Z_MSC_GDPS_WindDir_AGL-40m_LatLon0.15_PT150H.grib2 2026-04-30 16:31 1.4M
20260430T12Z_MSC_GDPS_WindDir_AGL-80m_LatLon0.15_PT150H.grib2 2026-04-30 16:31 1.4M
20260430T12Z_MSC_GDPS_WindDir_IsbL-0001_LatLon0.15_PT150H.grib2 2026-04-30 16:31 664K
20260430T12Z_MSC_GDPS_WindDir_IsbL-0005_LatLon0.15_PT150H.grib2 2026-04-30 16:31 814K
20260430T12Z_MSC_GDPS_WindDir_IsbL-0010_LatLon0.15_PT150H.grib2 2026-04-30 16:31 827K
20260430T12Z_MSC_GDPS_WindDir_IsbL-0020_LatLon0.15_PT150H.grib2 2026-04-30 16:31 944K
20260430T12Z_MSC_GDPS_WindDir_IsbL-0030_LatLon0.15_PT150H.grib2 2026-04-30 16:31 929K
20260430T12Z_MSC_GDPS_WindDir_IsbL-0050_LatLon0.15_PT150H.grib2 2026-04-30 16:31 946K
20260430T12Z_MSC_GDPS_WindDir_IsbL-0100_LatLon0.15_PT150H.grib2 2026-04-30 16:31 1.0M
20260430T12Z_MSC_GDPS_WindDir_IsbL-0150_LatLon0.15_PT150H.grib2 2026-04-30 16:31 1.0M
20260430T12Z_MSC_GDPS_WindDir_IsbL-0175_LatLon0.15_PT150H.grib2 2026-04-30 16:31 1.0M
20260430T12Z_MSC_GDPS_WindDir_IsbL-0200_LatLon0.15_PT150H.grib2 2026-04-30 16:31 1.1M
20260430T12Z_MSC_GDPS_WindDir_IsbL-0225_LatLon0.15_PT150H.grib2 2026-04-30 16:31 1.1M
20260430T12Z_MSC_GDPS_WindDir_IsbL-0250_LatLon0.15_PT150H.grib2 2026-04-30 16:31 1.1M
20260430T12Z_MSC_GDPS_WindDir_IsbL-0275_LatLon0.15_PT150H.grib2 2026-04-30 16:31 1.2M
20260430T12Z_MSC_GDPS_WindDir_IsbL-0300_LatLon0.15_PT150H.grib2 2026-04-30 16:31 1.2M
20260430T12Z_MSC_GDPS_WindDir_IsbL-0350_LatLon0.15_PT150H.grib2 2026-04-30 16:31 1.2M
20260430T12Z_MSC_GDPS_WindDir_IsbL-0400_LatLon0.15_PT150H.grib2 2026-04-30 16:31 1.3M
20260430T12Z_MSC_GDPS_WindDir_IsbL-0450_LatLon0.15_PT150H.grib2 2026-04-30 16:31 1.3M
20260430T12Z_MSC_GDPS_WindDir_IsbL-0500_LatLon0.15_PT150H.grib2 2026-04-30 16:31 1.4M
20260430T12Z_MSC_GDPS_WindDir_IsbL-0550_LatLon0.15_PT150H.grib2 2026-04-30 16:31 1.4M
20260430T12Z_MSC_GDPS_WindDir_IsbL-0600_LatLon0.15_PT150H.grib2 2026-04-30 16:31 1.5M
20260430T12Z_MSC_GDPS_WindDir_IsbL-0650_LatLon0.15_PT150H.grib2 2026-04-30 16:31 1.5M
20260430T12Z_MSC_GDPS_WindDir_IsbL-0700_LatLon0.15_PT150H.grib2 2026-04-30 16:31 1.6M
20260430T12Z_MSC_GDPS_WindDir_IsbL-0750_LatLon0.15_PT150H.grib2 2026-04-30 16:31 1.7M
20260430T12Z_MSC_GDPS_WindDir_IsbL-0800_LatLon0.15_PT150H.grib2 2026-04-30 16:31 1.8M
20260430T12Z_MSC_GDPS_WindDir_IsbL-0850_LatLon0.15_PT150H.grib2 2026-04-30 16:31 1.9M
20260430T12Z_MSC_GDPS_WindDir_IsbL-0875_LatLon0.15_PT150H.grib2 2026-04-30 16:31 1.9M
20260430T12Z_MSC_GDPS_WindDir_IsbL-0900_LatLon0.15_PT150H.grib2 2026-04-30 16:31 2.0M
20260430T12Z_MSC_GDPS_WindDir_IsbL-0925_LatLon0.15_PT150H.grib2 2026-04-30 16:31 2.0M
20260430T12Z_MSC_GDPS_WindDir_IsbL-0950_LatLon0.15_PT150H.grib2 2026-04-30 16:31 2.0M
20260430T12Z_MSC_GDPS_WindDir_IsbL-0970_LatLon0.15_PT150H.grib2 2026-04-30 16:31 2.0M
20260430T12Z_MSC_GDPS_WindDir_IsbL-0985_LatLon0.15_PT150H.grib2 2026-04-30 16:31 2.0M
20260430T12Z_MSC_GDPS_WindDir_IsbL-1000_LatLon0.15_PT150H.grib2 2026-04-30 16:31 2.0M
20260430T12Z_MSC_GDPS_WindDir_IsbL-1015_LatLon0.15_PT150H.grib2 2026-04-30 16:31 2.0M
20260430T12Z_MSC_GDPS_WindGust-Max_AGL-10m_LatLon0.15_PT150H.grib2 2026-04-30 16:31 2.2M
20260430T12Z_MSC_GDPS_WindGust-Min_AGL-10m_LatLon0.15_PT150H.grib2 2026-04-30 16:31 2.2M
20260430T12Z_MSC_GDPS_WindGust_AGL-10m_LatLon0.15_PT150H.grib2 2026-04-30 16:31 2.2M
20260430T12Z_MSC_GDPS_WindSpeed_AGL-10m_LatLon0.15_PT150H.grib2 2026-04-30 16:31 1.1M
20260430T12Z_MSC_GDPS_WindSpeed_AGL-120m_LatLon0.15_PT150H.grib2 2026-04-30 16:31 1.2M
20260430T12Z_MSC_GDPS_WindSpeed_AGL-40m_LatLon0.15_PT150H.grib2 2026-04-30 16:31 1.2M
20260430T12Z_MSC_GDPS_WindSpeed_AGL-80m_LatLon0.15_PT150H.grib2 2026-04-30 16:31 1.2M
20260430T12Z_MSC_GDPS_WindSpeed_IsbL-0001_LatLon0.15_PT150H.grib2 2026-04-30 16:31 647K
20260430T12Z_MSC_GDPS_WindSpeed_IsbL-0005_LatLon0.15_PT150H.grib2 2026-04-30 16:31 692K
20260430T12Z_MSC_GDPS_WindSpeed_IsbL-0010_LatLon0.15_PT150H.grib2 2026-04-30 16:31 626K
20260430T12Z_MSC_GDPS_WindSpeed_IsbL-0020_LatLon0.15_PT150H.grib2 2026-04-30 16:31 665K
20260430T12Z_MSC_GDPS_WindSpeed_IsbL-0030_LatLon0.15_PT150H.grib2 2026-04-30 16:31 861K
20260430T12Z_MSC_GDPS_WindSpeed_IsbL-0050_LatLon0.15_PT150H.grib2 2026-04-30 16:31 898K
20260430T12Z_MSC_GDPS_WindSpeed_IsbL-0100_LatLon0.15_PT150H.grib2 2026-04-30 16:31 1.1M
20260430T12Z_MSC_GDPS_WindSpeed_IsbL-0150_LatLon0.15_PT150H.grib2 2026-04-30 16:31 1.0M
20260430T12Z_MSC_GDPS_WindSpeed_IsbL-0175_LatLon0.15_PT150H.grib2 2026-04-30 16:31 1.0M
20260430T12Z_MSC_GDPS_WindSpeed_IsbL-0200_LatLon0.15_PT150H.grib2 2026-04-30 16:31 1.1M
20260430T12Z_MSC_GDPS_WindSpeed_IsbL-0225_LatLon0.15_PT150H.grib2 2026-04-30 16:31 1.1M
20260430T12Z_MSC_GDPS_WindSpeed_IsbL-0250_LatLon0.15_PT150H.grib2 2026-04-30 16:31 1.1M
20260430T12Z_MSC_GDPS_WindSpeed_IsbL-0275_LatLon0.15_PT150H.grib2 2026-04-30 16:31 1.1M
20260430T12Z_MSC_GDPS_WindSpeed_IsbL-0300_LatLon0.15_PT150H.grib2 2026-04-30 16:31 1.1M
20260430T12Z_MSC_GDPS_WindSpeed_IsbL-0350_LatLon0.15_PT150H.grib2 2026-04-30 16:31 1.1M
20260430T12Z_MSC_GDPS_WindSpeed_IsbL-0400_LatLon0.15_PT150H.grib2 2026-04-30 16:31 1.1M
20260430T12Z_MSC_GDPS_WindSpeed_IsbL-0450_LatLon0.15_PT150H.grib2 2026-04-30 16:31 1.1M
20260430T12Z_MSC_GDPS_WindSpeed_IsbL-0500_LatLon0.15_PT150H.grib2 2026-04-30 16:31 1.1M
20260430T12Z_MSC_GDPS_WindSpeed_IsbL-0550_LatLon0.15_PT150H.grib2 2026-04-30 16:31 1.2M
20260430T12Z_MSC_GDPS_WindSpeed_IsbL-0600_LatLon0.15_PT150H.grib2 2026-04-30 16:31 1.1M
20260430T12Z_MSC_GDPS_WindSpeed_IsbL-0650_LatLon0.15_PT150H.grib2 2026-04-30 16:31 1.2M
20260430T12Z_MSC_GDPS_WindSpeed_IsbL-0700_LatLon0.15_PT150H.grib2 2026-04-30 16:31 1.5M
20260430T12Z_MSC_GDPS_WindSpeed_IsbL-0750_LatLon0.15_PT150H.grib2 2026-04-30 16:31 1.6M
20260430T12Z_MSC_GDPS_WindSpeed_IsbL-0800_LatLon0.15_PT150H.grib2 2026-04-30 16:31 1.7M
20260430T12Z_MSC_GDPS_WindSpeed_IsbL-0850_LatLon0.15_PT150H.grib2 2026-04-30 16:31 1.8M
20260430T12Z_MSC_GDPS_WindSpeed_IsbL-0875_LatLon0.15_PT150H.grib2 2026-04-30 16:31 1.8M
20260430T12Z_MSC_GDPS_WindSpeed_IsbL-0900_LatLon0.15_PT150H.grib2 2026-04-30 16:31 1.8M
20260430T12Z_MSC_GDPS_WindSpeed_IsbL-0925_LatLon0.15_PT150H.grib2 2026-04-30 16:31 1.8M
20260430T12Z_MSC_GDPS_WindSpeed_IsbL-0950_LatLon0.15_PT150H.grib2 2026-04-30 16:31 1.9M
20260430T12Z_MSC_GDPS_WindSpeed_IsbL-0970_LatLon0.15_PT150H.grib2 2026-04-30 16:31 1.9M
20260430T12Z_MSC_GDPS_WindSpeed_IsbL-0985_LatLon0.15_PT150H.grib2 2026-04-30 16:31 1.8M
20260430T12Z_MSC_GDPS_WindSpeed_IsbL-1000_LatLon0.15_PT150H.grib2 2026-04-30 16:31 1.8M
20260430T12Z_MSC_GDPS_WindSpeed_IsbL-1015_LatLon0.15_PT150H.grib2 2026-04-30 16:31 1.8M
20260430T12Z_MSC_GDPS_WindU_AGL-10m_LatLon0.15_PT150H.grib2 2026-04-30 16:31 1.6M
20260430T12Z_MSC_GDPS_WindU_AGL-120m_LatLon0.15_PT150H.grib2 2026-04-30 16:31 1.0M
20260430T12Z_MSC_GDPS_WindU_AGL-40m_LatLon0.15_PT150H.grib2 2026-04-30 16:31 969K
20260430T12Z_MSC_GDPS_WindU_AGL-80m_LatLon0.15_PT150H.grib2 2026-04-30 16:31 1.0M
20260430T12Z_MSC_GDPS_WindU_IsbL-0001_LatLon0.15_PT150H.grib2 2026-04-30 16:31 498K
20260430T12Z_MSC_GDPS_WindU_IsbL-0005_LatLon0.15_PT150H.grib2 2026-04-30 16:31 690K
20260430T12Z_MSC_GDPS_WindU_IsbL-0010_LatLon0.15_PT150H.grib2 2026-04-30 16:31 701K
20260430T12Z_MSC_GDPS_WindU_IsbL-0020_LatLon0.15_PT150H.grib2 2026-04-30 16:31 731K
20260430T12Z_MSC_GDPS_WindU_IsbL-0030_LatLon0.15_PT150H.grib2 2026-04-30 16:31 738K
20260430T12Z_MSC_GDPS_WindU_IsbL-0050_LatLon0.15_PT150H.grib2 2026-04-30 16:31 763K
20260430T12Z_MSC_GDPS_WindU_IsbL-0100_LatLon0.15_PT150H.grib2 2026-04-30 16:31 869K
20260430T12Z_MSC_GDPS_WindU_IsbL-0150_LatLon0.15_PT150H.grib2 2026-04-30 16:31 1.0M
20260430T12Z_MSC_GDPS_WindU_IsbL-0175_LatLon0.15_PT150H.grib2 2026-04-30 16:31 1.0M
20260430T12Z_MSC_GDPS_WindU_IsbL-0200_LatLon0.15_PT150H.grib2 2026-04-30 16:31 1.1M
20260430T12Z_MSC_GDPS_WindU_IsbL-0225_LatLon0.15_PT150H.grib2 2026-04-30 16:31 856K
20260430T12Z_MSC_GDPS_WindU_IsbL-0250_LatLon0.15_PT150H.grib2 2026-04-30 16:31 858K
20260430T12Z_MSC_GDPS_WindU_IsbL-0275_LatLon0.15_PT150H.grib2 2026-04-30 16:31 941K
20260430T12Z_MSC_GDPS_WindU_IsbL-0300_LatLon0.15_PT150H.grib2 2026-04-30 16:31 933K
20260430T12Z_MSC_GDPS_WindU_IsbL-0350_LatLon0.15_PT150H.grib2 2026-04-30 16:31 891K
20260430T12Z_MSC_GDPS_WindU_IsbL-0400_LatLon0.15_PT150H.grib2 2026-04-30 16:31 896K
20260430T12Z_MSC_GDPS_WindU_IsbL-0450_LatLon0.15_PT150H.grib2 2026-04-30 16:31 899K
20260430T12Z_MSC_GDPS_WindU_IsbL-0500_LatLon0.15_PT150H.grib2 2026-04-30 16:31 1.1M
20260430T12Z_MSC_GDPS_WindU_IsbL-0550_LatLon0.15_PT150H.grib2 2026-04-30 16:31 1.1M
20260430T12Z_MSC_GDPS_WindU_IsbL-0600_LatLon0.15_PT150H.grib2 2026-04-30 16:31 1.2M
20260430T12Z_MSC_GDPS_WindU_IsbL-0650_LatLon0.15_PT150H.grib2 2026-04-30 16:31 1.2M
20260430T12Z_MSC_GDPS_WindU_IsbL-0700_LatLon0.15_PT150H.grib2 2026-04-30 16:31 1.2M
20260430T12Z_MSC_GDPS_WindU_IsbL-0750_LatLon0.15_PT150H.grib2 2026-04-30 16:31 1.3M
20260430T12Z_MSC_GDPS_WindU_IsbL-0800_LatLon0.15_PT150H.grib2 2026-04-30 16:31 1.4M
20260430T12Z_MSC_GDPS_WindU_IsbL-0850_LatLon0.15_PT150H.grib2 2026-04-30 16:31 1.4M
20260430T12Z_MSC_GDPS_WindU_IsbL-0875_LatLon0.15_PT150H.grib2 2026-04-30 16:31 1.5M
20260430T12Z_MSC_GDPS_WindU_IsbL-0900_LatLon0.15_PT150H.grib2 2026-04-30 16:31 1.5M
20260430T12Z_MSC_GDPS_WindU_IsbL-0925_LatLon0.15_PT150H.grib2 2026-04-30 16:31 1.5M
20260430T12Z_MSC_GDPS_WindU_IsbL-0950_LatLon0.15_PT150H.grib2 2026-04-30 16:31 1.4M
20260430T12Z_MSC_GDPS_WindU_IsbL-0970_LatLon0.15_PT150H.grib2 2026-04-30 16:31 1.4M
20260430T12Z_MSC_GDPS_WindU_IsbL-0985_LatLon0.15_PT150H.grib2 2026-04-30 16:31 1.4M
20260430T12Z_MSC_GDPS_WindU_IsbL-1000_LatLon0.15_PT150H.grib2 2026-04-30 16:31 1.4M
20260430T12Z_MSC_GDPS_WindU_IsbL-1015_LatLon0.15_PT150H.grib2 2026-04-30 16:31 1.6M
20260430T12Z_MSC_GDPS_WindV_AGL-10m_LatLon0.15_PT150H.grib2 2026-04-30 16:31 1.6M
20260430T12Z_MSC_GDPS_WindV_AGL-120m_LatLon0.15_PT150H.grib2 2026-04-30 16:31 1.0M
20260430T12Z_MSC_GDPS_WindV_AGL-40m_LatLon0.15_PT150H.grib2 2026-04-30 16:31 969K
20260430T12Z_MSC_GDPS_WindV_AGL-80m_LatLon0.15_PT150H.grib2 2026-04-30 16:31 1.0M
20260430T12Z_MSC_GDPS_WindV_IsbL-0001_LatLon0.15_PT150H.grib2 2026-04-30 16:31 778K
20260430T12Z_MSC_GDPS_WindV_IsbL-0005_LatLon0.15_PT150H.grib2 2026-04-30 16:31 782K
20260430T12Z_MSC_GDPS_WindV_IsbL-0010_LatLon0.15_PT150H.grib2 2026-04-30 16:31 883K
20260430T12Z_MSC_GDPS_WindV_IsbL-0020_LatLon0.15_PT150H.grib2 2026-04-30 16:31 931K
20260430T12Z_MSC_GDPS_WindV_IsbL-0030_LatLon0.15_PT150H.grib2 2026-04-30 16:31 934K
20260430T12Z_MSC_GDPS_WindV_IsbL-0050_LatLon0.15_PT150H.grib2 2026-04-30 16:31 1.0M
20260430T12Z_MSC_GDPS_WindV_IsbL-0100_LatLon0.15_PT150H.grib2 2026-04-30 16:31 1.1M
20260430T12Z_MSC_GDPS_WindV_IsbL-0150_LatLon0.15_PT150H.grib2 2026-04-30 16:31 1.0M
20260430T12Z_MSC_GDPS_WindV_IsbL-0175_LatLon0.15_PT150H.grib2 2026-04-30 16:31 1.0M
20260430T12Z_MSC_GDPS_WindV_IsbL-0200_LatLon0.15_PT150H.grib2 2026-04-30 16:31 1.0M
20260430T12Z_MSC_GDPS_WindV_IsbL-0225_LatLon0.15_PT150H.grib2 2026-04-30 16:31 852K
20260430T12Z_MSC_GDPS_WindV_IsbL-0250_LatLon0.15_PT150H.grib2 2026-04-30 16:31 854K
20260430T12Z_MSC_GDPS_WindV_IsbL-0275_LatLon0.15_PT150H.grib2 2026-04-30 16:31 879K
20260430T12Z_MSC_GDPS_WindV_IsbL-0300_LatLon0.15_PT150H.grib2 2026-04-30 16:31 869K
20260430T12Z_MSC_GDPS_WindV_IsbL-0350_LatLon0.15_PT150H.grib2 2026-04-30 16:31 881K
20260430T12Z_MSC_GDPS_WindV_IsbL-0400_LatLon0.15_PT150H.grib2 2026-04-30 16:31 885K
20260430T12Z_MSC_GDPS_WindV_IsbL-0450_LatLon0.15_PT150H.grib2 2026-04-30 16:31 1.1M
20260430T12Z_MSC_GDPS_WindV_IsbL-0500_LatLon0.15_PT150H.grib2 2026-04-30 16:31 1.1M
20260430T12Z_MSC_GDPS_WindV_IsbL-0550_LatLon0.15_PT150H.grib2 2026-04-30 16:31 1.1M
20260430T12Z_MSC_GDPS_WindV_IsbL-0600_LatLon0.15_PT150H.grib2 2026-04-30 16:31 1.1M
20260430T12Z_MSC_GDPS_WindV_IsbL-0650_LatLon0.15_PT150H.grib2 2026-04-30 16:31 1.2M
20260430T12Z_MSC_GDPS_WindV_IsbL-0700_LatLon0.15_PT150H.grib2 2026-04-30 16:31 1.2M
20260430T12Z_MSC_GDPS_WindV_IsbL-0750_LatLon0.15_PT150H.grib2 2026-04-30 16:31 1.2M
20260430T12Z_MSC_GDPS_WindV_IsbL-0800_LatLon0.15_PT150H.grib2 2026-04-30 16:31 1.3M
20260430T12Z_MSC_GDPS_WindV_IsbL-0850_LatLon0.15_PT150H.grib2 2026-04-30 16:31 1.4M
20260430T12Z_MSC_GDPS_WindV_IsbL-0875_LatLon0.15_PT150H.grib2 2026-04-30 16:31 1.5M
20260430T12Z_MSC_GDPS_WindV_IsbL-0900_LatLon0.15_PT150H.grib2 2026-04-30 16:31 1.5M
20260430T12Z_MSC_GDPS_WindV_IsbL-0925_LatLon0.15_PT150H.grib2 2026-04-30 16:31 1.5M
20260430T12Z_MSC_GDPS_WindV_IsbL-0950_LatLon0.15_PT150H.grib2 2026-04-30 16:31 1.4M
20260430T12Z_MSC_GDPS_WindV_IsbL-0970_LatLon0.15_PT150H.grib2 2026-04-30 16:31 1.4M
20260430T12Z_MSC_GDPS_WindV_IsbL-0985_LatLon0.15_PT150H.grib2 2026-04-30 16:31 1.4M
20260430T12Z_MSC_GDPS_WindV_IsbL-1000_LatLon0.15_PT150H.grib2 2026-04-30 16:31 1.7M
20260430T12Z_MSC_GDPS_WindV_IsbL-1015_LatLon0.15_PT150H.grib2 2026-04-30 16:31 1.6M